Weather reports worldwide

Advertisment
St Joseph MO/Rosecrans, United States of America (72449): temperature & dewpoint: 31.05.2020 13:00:00 - 06.06.2020 13:00:00 (CDT)St Joseph MO/Rosecrans, United States of America (72449): wind speed & gusts: 31.05.2020 13:00:00 - 06.06.2020 13:00:00 (CDT)St Joseph MO/Rosecrans, United States of America (72449): wind direction: 31.05.2020 13:00:00 - 06.06.2020 13:00:00 (CDT)St Joseph MO/Rosecrans, United States of America (72449): reduced air pressure: 31.05.2020 13:00:00 - 06.06.2020 13:00:00 (CDT)St Joseph MO/Rosecrans, United States of America (72449): visibility: 31.05.2020 13:00:00 - 06.06.2020 13:00:00 (CDT)St Joseph MO/Rosecrans, United States of America (72449): precipitation: 31.05.2020 13:00:00 - 06.06.2020 13:00:00 (CDT)
Date & Time tt [°C] td [°C] ff [km/h] ff [kn] fx [km/h] fx [kn] dd ppp [hPa] vv [km] rr [mm]
06.06.2020 13:00:00 - - - - - - - - - -
06.06.2020 12:00:00 32,2 22,2 16 9 - - S 1013,9 16 -
06.06.2020 11:00:00 31,1 22,8 11 6 - - SE 1013,8 16 -
06.06.2020 10:00:00 28,9 22,8 0 0 - - N 1014,8 16 -
06.06.2020 09:00:00 26,7 21,7 8 4 - - SSE 1015,1 16 -
06.06.2020 08:00:00 25,0 21,7 13 7 - - ESE 1014,7 16 -
06.06.2020 07:00:00 23,3 21,1 5 3 - - E 1014,6 16 -
06.06.2020 06:00:00 22,8 20,6 5 3 - - E 1014,0 16 -
06.06.2020 05:00:00 22,8 20,6 8 4 - - E 1013,8 16 -
06.06.2020 04:00:00 23,9 20,6 0 0 - - N 1013,6 16 -
06.06.2020 03:00:00 23,9 20,6 0 0 - - N - 16 -
06.06.2020 02:00:00 23,9 20,6 8 4 - - S - 16 -
06.06.2020 01:00:00 24,4 21,1 8 4 - - SE - 16 -
06.06.2020 00:00:00 25,0 21,1 9 5 - - SSE - 16 -
05.06.2020 23:00:00 27,2 21,7 9 5 - - ESE - 16 -
05.06.2020 22:00:00 27,2 21,1 11 6 - - E - 16 -
05.06.2020 21:00:00 28,3 21,1 9 5 - - SE - 16 -
05.06.2020 20:00:00 30,6 21,1 11 6 - - S - 16 -
05.06.2020 19:00:00 32,8 18,9 8 4 - - S - 16 -
05.06.2020 18:00:00 33,3 20,0 9 5 - - S - 16 -
05.06.2020 17:00:00 33,3 20,6 9 5 - - S - 16 -
05.06.2020 16:00:00 33,9 20,6 0 0 - - N - - -
05.06.2020 15:00:00 - - - - - - - - - -
05.06.2020 14:00:00 - - - - - - - - - -
05.06.2020 13:00:00 - - - - - - - - - -
05.06.2020 12:00:00 - - - - - - - - - -
05.06.2020 11:00:00 25,0 20,0 9 5 - - SE 1011,7 16 -
05.06.2020 10:00:00 23,3 20,0 9 5 - - ENE 1010,9 16 -
05.06.2020 09:00:00 21,7 18,9 0 0 - - N 1010,9 16 -
05.06.2020 08:00:00 21,1 18,3 9 5 - - NNW 1010,2 16 -
05.06.2020 07:00:00 20,0 18,3 5 3 - - - 1009,8 16 -
05.06.2020 06:00:00 20,0 17,2 13 7 - - ESE 1008,4 16 -
05.06.2020 05:00:00 20,0 17,8 15 8 - - ESE 1008,5 16 -
05.06.2020 04:00:00 20,0 17,8 18 10 104 56 S 1008,4 16 2,5
05.06.2020 03:00:00 25,0 21,7 - - - - - 1009,4 - -
05.06.2020 02:00:00 24,4 21,7 9 5 - - S 1008,0 16 -
05.06.2020 01:00:00 23,9 21,1 9 5 - - SSE 1007,5 16 -
05.06.2020 00:00:00 24,4 21,1 8 4 - - SSE 1008,1 16 -
04.06.2020 23:00:00 25,0 21,1 9 5 - - SSE 1007,8 16 -
04.06.2020 22:00:00 26,1 21,1 11 6 - - SSE 1007,0 16 -
04.06.2020 21:00:00 26,7 21,1 9 5 - - S 1005,9 16 -
04.06.2020 20:00:00 29,4 20,6 13 7 - - S 1005,9 16 -
04.06.2020 19:00:00 31,1 20,0 13 7 - - S 1006,2 16 -
04.06.2020 18:00:00 31,7 19,4 15 8 - - SSW 1006,5 16 -
04.06.2020 17:00:00 31,7 19,4 11 6 - - S 1006,7 16 -
04.06.2020 16:00:00 31,1 18,9 5 3 - - S 1007,1 16 -
04.06.2020 15:00:00 30,6 19,4 9 5 - - SSW 1007,7 16 -
04.06.2020 14:00:00 29,4 20,0 8 4 - - - 1008,0 16 -
04.06.2020 13:00:00 28,3 18,9 5 3 - - - 1008,4 16 -
04.06.2020 12:00:00 27,2 18,9 9 5 - - WSW 1008,7 16 -
04.06.2020 11:00:00 25,0 19,4 8 4 - - S 1008,8 16 -
04.06.2020 10:00:00 23,9 18,3 11 6 - - SSW 1009,1 16 -
04.06.2020 09:00:00 22,2 18,3 13 7 - - SSW 1009,3 16 -
04.06.2020 08:00:00 20,6 18,3 11 6 - - S 1009,4 16 -
04.06.2020 07:00:00 19,4 17,8 16 9 - - S 1009,1 16 -
04.06.2020 06:00:00 19,4 17,8 15 8 - - S 1009,3 16 -
04.06.2020 05:00:00 20,0 18,3 9 5 - - ESE 1007,7 16 -
04.06.2020 04:00:00 20,0 17,8 13 7 - - ESE 1006,3 16 1,8
04.06.2020 03:00:00 20,0 17,8 8 4 78 42 WSW 1008,9 10 1,3
04.06.2020 02:00:00 20,0 17,2 37 20 93 50 NW 1006,9 16 0,5
04.06.2020 01:00:00 25,6 22,8 11 6 - - S 1005,7 16 -
04.06.2020 00:00:00 25,6 22,2 5 3 - - N 1006,1 16 -
03.06.2020 23:00:00 25,6 22,2 5 3 - - NNE 1007,3 16 -
03.06.2020 22:00:00 27,8 22,8 0 0 - - N 1007,0 16 -
03.06.2020 21:00:00 28,9 22,2 8 4 - - S 1006,3 16 -
03.06.2020 20:00:00 31,1 21,7 8 4 - - SW 1006,4 16 -
03.06.2020 19:00:00 32,2 21,1 8 4 - - SSW 1006,4 16 -
03.06.2020 18:00:00 32,8 21,1 0 0 - - N 1006,7 16 -
03.06.2020 17:00:00 32,8 21,1 0 0 - - N 1007,3 16 -
03.06.2020 16:00:00 32,2 21,1 13 7 - - N 1007,8 16 -
03.06.2020 15:00:00 32,2 21,1 9 5 - - SSW 1008,5 16 -
03.06.2020 14:00:00 32,2 21,1 9 5 - - S 1008,9 16 -
03.06.2020 13:00:00 31,7 20,6 9 5 - - - 1009,7 16 -
03.06.2020 12:00:00 30,0 20,6 9 5 - - - 1010,0 16 0,0
03.06.2020 11:00:00 28,9 20,6 18 10 - - SW 1010,0 16 -
03.06.2020 10:00:00 27,2 20,6 15 8 - - SW 1010,2 16 -
03.06.2020 09:00:00 26,7 20,0 18 10 - - W 1011,1 16 -
03.06.2020 08:00:00 25,0 20,6 8 4 - - SSW 1011,1 16 -
03.06.2020 07:00:00 23,9 20,0 9 5 - - SSW 1009,9 16 -
03.06.2020 06:00:00 22,8 20,0 15 8 - - SSW 1009,6 16 -
03.06.2020 05:00:00 23,3 20,0 11 6 - - SSW 1010,3 16 -
03.06.2020 04:00:00 23,3 20,0 13 7 - - SSW 1010,6 16 -
03.06.2020 03:00:00 23,3 20,0 16 9 - - SSW 1011,4 16 -
03.06.2020 02:00:00 23,9 19,4 16 9 - - SSW 1011,8 16 -
03.06.2020 01:00:00 24,4 19,4 16 9 - - SSW 1012,0 16 -
03.06.2020 00:00:00 25,0 19,4 16 9 - - SSW 1012,1 16 -
02.06.2020 23:00:00 25,6 19,4 13 7 - - SSW 1012,4 16 -
02.06.2020 22:00:00 26,1 19,4 13 7 - - SSW 1011,9 16 -
02.06.2020 21:00:00 27,8 18,9 18 10 - - S 1010,8 16 -
02.06.2020 20:00:00 28,9 18,9 18 10 - - S 1011,1 16 -
02.06.2020 19:00:00 30,6 18,9 22 12 - - S 1011,3 16 -
02.06.2020 18:00:00 31,7 18,9 22 12 - - SSW 1011,4 16 -
02.06.2020 17:00:00 32,2 19,4 24 13 - - S 1011,8 16 -
02.06.2020 16:00:00 32,8 19,4 28 15 - - SSW 1012,0 16 -
02.06.2020 15:00:00 31,7 19,4 24 13 - - SSW 1012,2 16 -
02.06.2020 14:00:00 31,1 19,4 26 14 - - SSW 1012,7 16 -
02.06.2020 13:00:00 30,6 19,4 29 16 - - SSW 1013,1 16 -
02.06.2020 12:00:00 30,0 18,9 18 10 - - SSW 1013,4 16 -
02.06.2020 11:00:00 27,2 17,8 29 16 - - SSW 1014,1 16 -
02.06.2020 10:00:00 26,7 17,8 28 15 - - SW 1014,7 16 -
02.06.2020 09:00:00 24,4 17,2 24 13 - - SSW 1015,0 16 -
02.06.2020 08:00:00 22,2 16,7 22 12 - - SSW 1015,0 16 -
02.06.2020 07:00:00 20,6 16,1 15 8 - - SSW 1015,1 16 -
02.06.2020 06:00:00 20,0 16,1 9 5 - - SSW 1014,8 16 -
02.06.2020 05:00:00 20,0 16,1 11 6 - - SSW 1014,6 16 -
02.06.2020 04:00:00 20,6 16,1 13 7 - - SSW 1014,5 16 -
02.06.2020 03:00:00 21,1 16,1 11 6 - - SSW 1014,7 16 -
02.06.2020 02:00:00 21,7 16,7 22 12 - - SSW 1014,6 16 -
02.06.2020 01:00:00 22,2 16,1 24 13 - - SSW 1014,8 16 -
02.06.2020 00:00:00 22,8 16,1 26 14 - - S 1015,0 16 -
01.06.2020 23:00:00 23,3 16,1 22 12 - - S 1015,4 16 -
01.06.2020 22:00:00 25,0 16,1 18 10 - - S 1014,9 16 -
01.06.2020 21:00:00 26,1 16,1 28 15 - - SSW 1014,2 16 -
01.06.2020 20:00:00 27,8 16,1 26 14 52 28 SSW 1014,2 16 0,0
01.06.2020 19:00:00 28,9 16,1 35 19 52 28 SSW 1013,8 16 0,0
01.06.2020 18:00:00 29,4 16,1 39 21 57 31 SSW 1013,9 16 -
01.06.2020 17:00:00 30,6 16,7 35 19 61 33 SSW 1014,1 16 -
01.06.2020 16:00:00 30,6 16,7 35 19 55 30 SSW 1014,6 16 -
01.06.2020 15:00:00 30,0 16,1 41 22 55 30 S 1015,3 16 -
01.06.2020 14:00:00 28,9 15,0 34 18 54 29 SSW 1015,9 16 -
01.06.2020 13:00:00 28,9 16,7 31 17 54 29 S 1016,4 16 -
01.06.2020 12:00:00 27,2 15,6 39 21 54 29 SSW 1017,2 16 -
01.06.2020 11:00:00 26,1 16,7 28 15 52 28 S 1018,0 16 -
01.06.2020 10:00:00 25,0 16,1 34 18 48 26 SSW 1018,5 16 -
01.06.2020 09:00:00 22,8 15,6 28 15 - - SSW 1019,2 16 -
01.06.2020 08:00:00 22,2 16,1 18 10 - - S 1019,3 16 -
01.06.2020 07:00:00 20,6 16,1 15 8 - - S 1018,9 16 -
01.06.2020 06:00:00 19,4 15,6 16 9 - - S 1018,5 16 -
01.06.2020 05:00:00 20,0 15,6 11 6 - - S 1018,6 16 -
01.06.2020 04:00:00 21,1 15,0 11 6 - - S 1018,7 16 -
01.06.2020 03:00:00 20,6 15,0 11 6 - - SSE 1018,9 16 -
01.06.2020 02:00:00 21,1 15,0 15 8 - - S 1018,8 16 -
01.06.2020 01:00:00 21,7 15,0 18 10 - - SSE 1019,3 16 -
01.06.2020 00:00:00 21,7 15,0 18 10 - - SSE 1019,7 16 -
31.05.2020 23:00:00 22,2 15,0 24 13 - - SSE 1019,9 16 -
31.05.2020 22:00:00 22,2 15,0 16 9 - - SE 1019,6 16 -
31.05.2020 21:00:00 22,2 15,0 16 9 - - SE 1019,2 16 -
31.05.2020 20:00:00 23,9 15,0 21 11 - - SE 1019,2 16 -
31.05.2020 19:00:00 18,3 11,1 15 8 - - NE 1023,1 16 -
31.05.2020 18:00:00 25,6 15,0 26 14 - - SE 1020,0 16 -
31.05.2020 17:00:00 25,6 14,4 26 14 - - ESE 1020,9 16 -
31.05.2020 16:00:00 26,1 14,4 18 10 - - SE 1021,6 16 -
31.05.2020 15:00:00 25,0 14,4 21 11 - - ESE 1022,3 16 -
31.05.2020 14:00:00 24,4 13,9 22 12 - - SE 1022,8 16 -
31.05.2020 13:00:00 22,2 13,9 18 10 - - SE 1024,0 16 -

tt = temperature
td = dewpoint
ff = wind speed
fx = gusts
dd = wind direction
ppp = reduced air pressure
vv = visibility
rr = precipitation

Next stations